Tracking 30995 objects as of 6-Jul-2025
HD Live streaming from Space Station
objects crossing your sky now

STARLINK-3560

Track STARLINK-3560 now!
10-day predictions
STARLINK-3560 is classified as:


NORAD ID: 51859
Int'l Code: 2022-022H
Perigee: 546.0 km
Apogee: 547.7 km
Inclination: 53.2 °
Period: 95.4 minutes
Semi major axis: 6917 km
RCS: Unknown
Launch date: March 3, 2022
Source: United States (US)
Launch site: AIR FORCE EASTERN TEST RANGE (AFETR)
Your satellite tracking list
Your tracking list is empty




NASA's NSSDC Master Catalog

Two Line Element Set (TLE):
1 51859U 22022H   25186.84533653  .00000113  00000-0  25214-4 0  9998
2 51859  53.2184  37.2555 0001249  96.4065 263.7070 15.08841124185896
Source of the keplerian elements: AFSPC